Weather History for Cincinnati, OH

Change the Weather History Date:

Saturday, November 24, 2012

  Actual Average Record
Temperature  
Mean Temperature 30 °F -  
Max Temperature 35 °F 49 °F 68 °F (2001)
Min Temperature 25 °F 32 °F 8 °F (1950)
Degree Days  
Heating Degree Days 35    
Moisture  
Dew Point 19 °F    
Average Humidity 62    
Maximum Humidity 78    
Minimum Humidity 52    
Precipitation  
Precipitation 0.00 in - - ()
Sea Level Pressure  
Sea Level Pressure 30.23 in    
Wind  
Wind Speed 8 mph (WNW)    
Max Wind Speed 12 mph    
Max Gust Speed -    
Visibility 10 miles    
Events      
Averages and records for this station are not official NWS values.
T = Trace of Precipitation, MM = Missing Value Source: NWS Daily Summary

Daily Weather History Graph

Daily Weather History Graph

Search for Another Location

Airport:

Trip Planner

Search our weather history database for the weather conditions in past years. The results will help you decide how hot, cold, wet, or windy it might be!

Date:

Astronomy

Nov. 24, 2012 Rise Set
Actual Time 7:31 AM EST 5:17 PM EST
Civil Twilight 7:01 AM EST 5:46 PM EST
Nautical Twilight 6:29 AM EST 6:19 PM EST
Astronomical Twilight 5:57 AM EST 6:51 PM EST
Moon 3:00 PM EST (11/24) 3:48 AM EST (11/24)
Length of Visible Light 10h 44m
Length of Day
9h 46m
Waxing Gibbous, 87% of the Moon is Illuminated
Nov 24
Waxing Gibbous
Nov 28
Full
Dec 6
Last Quarter
Dec 13
New
Dec 20
First Quarter

Hourly Weather History & Observations

Time (EST) Temp. Windchill Dew Point Humidity Pressure Visibility Wind Dir Wind Speed Gust Speed Precip Events Conditions
12:53 AM 32.0 °F 23.6 °F 19.0 °F 59% 30.22 in 10.0 mi NW 10.4 mph - N/A   Overcast
1:53 AM 32.0 °F 23.0 °F 18.0 °F 56% 30.22 in 10.0 mi NW 11.5 mph - N/A   Overcast
2:53 AM 30.9 °F 22.8 °F 19.0 °F 61% 30.22 in 10.0 mi WNW 9.2 mph - N/A   Overcast
3:53 AM 30.9 °F 22.8 °F 18.0 °F 59% 30.22 in 10.0 mi West 9.2 mph - N/A   Overcast
4:53 AM 30.9 °F 23.5 °F 19.0 °F 61% 30.22 in 10.0 mi West 8.1 mph - N/A   Overcast
5:53 AM 30.9 °F 24.3 °F 19.0 °F 61% 30.22 in 10.0 mi Variable 6.9 mph - N/A   Overcast
6:53 AM 30.9 °F 24.3 °F 19.0 °F 61% 30.23 in 10.0 mi West 6.9 mph - N/A   Overcast
7:53 AM 30.9 °F 23.5 °F 19.0 °F 61% 30.25 in 10.0 mi West 8.1 mph - N/A   Overcast
8:53 AM 30.9 °F 23.5 °F 19.9 °F 64% 30.25 in 10.0 mi West 8.1 mph - N/A   Overcast
9:53 AM 32.0 °F 24.2 °F 19.9 °F 61% 30.27 in 10.0 mi WNW 9.2 mph - N/A   Overcast
10:53 AM 33.1 °F 24.9 °F 21.0 °F 61% 30.27 in 10.0 mi West 10.4 mph - N/A   Overcast
11:53 AM 34.0 °F 27.2 °F 21.0 °F 59% 30.26 in 10.0 mi West 8.1 mph - N/A   Overcast
12:53 PM 35.1 °F 28.6 °F 21.0 °F 57% 30.24 in 10.0 mi WNW 8.1 mph - N/A   Overcast
1:53 PM 35.1 °F 27.9 °F 21.0 °F 57% 30.23 in 10.0 mi West 9.2 mph - N/A   Overcast
2:53 PM 35.1 °F 28.6 °F 19.0 °F 52% 30.22 in 10.0 mi West 8.1 mph - N/A   Overcast
3:53 PM 35.1 °F 27.9 °F 19.0 °F 52% 30.22 in 10.0 mi West 9.2 mph - N/A   Overcast
4:53 PM 34.0 °F 31.0 °F 19.0 °F 54% 30.23 in 10.0 mi West 3.5 mph - N/A   Overcast
5:53 PM 33.1 °F 27.7 °F 19.0 °F 56% 30.23 in 10.0 mi NW 5.8 mph - N/A   Overcast
6:53 PM 33.1 °F 27.7 °F 19.0 °F 56% 30.23 in 10.0 mi West 5.8 mph - N/A   Overcast
7:53 PM 32.0 °F - 19.0 °F 59% 30.21 in 10.0 mi Calm Calm - N/A   Partly Cloudy
8:53 PM 27.0 °F - 19.9 °F 75% 30.21 in 10.0 mi Calm Calm - N/A   Clear
9:53 PM 25.0 °F - 19.0 °F 78% 30.19 in 10.0 mi Calm Calm - N/A   Clear
10:53 PM 25.0 °F - 19.0 °F 78% 30.19 in 10.0 mi Calm Calm - N/A   Clear
11:53 PM 25.0 °F - 19.0 °F 78% 30.17 in 10.0 mi Calm Calm - N/A   Clear